Theta_e
304 304 304 305 305 305 303 301 299 295 295 299 300 301 303 303 305 307 305 311 317 317 317 316 314 312 311 310 311 312 311 310 309 309 308 309 310 310
306 303 304 305 304 304 305 302 301 300 296 298 300 300 302 304 305 305 304 310 315 317 317 316 314 313 311 309 310 309 307 307 307 306 306 307 308 308
305 305 305 305 305 305 304 303 303 300 301 302 300 301 300 300 302 305 304 303 304 317 316 315 315 313 310 308 309 307 306 306 305 304 304 305 306 307
306 305 305 306 305 305 305 305 305 303 304 302 300 299 299 299 300 300 303 304 302 308 314 315 315 313 310 309 309 307 304 305 303 302 303 303 304 305
307 306 306 306 305 306 306 306 305 305 303 302 302 299 299 298 298 299 300 301 303 307 312 314 315 313 311 310 310 308 306 303 302 301 302 302 302 303
307 307 306 306 306 306 306 306 306 304 303 302 303 298 298 298 298 298 297 298 300 301 305 305 306 307 311 307 305 306 305 302 301 301 301 300 300 301
307 307 307 308 312 310 307 306 306 304 303 302 302 297 298 295 298 296 300 297 297 298 296 296 296 296 295 302 301 306 303 302 301 301 301 299 299 299
306 306 307 311 311 314 315 313 309 305 303 303 302 301 301 302 297 299 298 294 293 296 294 292 293 292 292 291 299 303 302 301 301 300 299 298 298 298
307 307 306 307 310 309 314 315 314 313 312 306 303 303 303 303 302 295 296 294 296 291 291 289 289 289 290 293 300 302 301 300 300 299 297 297 297 298
308 307 306 307 307 308 308 308 310 311 310 310 307 307 306 305 304 303 301 297 291 290 291 288 287 287 289 290 299 300 300 301 299 297 296 296 297 296
309 308 307 306 309 312 307 306 306 308 312 313 312 311 311 309 305 298 293 294 288 286 290 289 286 286 286 286 289 298 299 298 296 295 295 295 295 295
307 308 309 308 310 311 308 306 304 305 306 307 308 310 311 308 308 303 300 297 288 286 289 290 284 285 282 283 285 286 288 294 294 293 293 294 294 287
306 306 307 310 310 311 311 307 306 308 307 306 306 306 307 304 304 303 302 301 292 291 290 291 284 283 282 281 283 284 284 284 284 286 291 293 293 291
306 308 308 309 310 310 310 311 311 311 307 303 304 303 303 302 303 303 302 302 302 299 292 289 284 284 282 279 280 282 282 282 282 282 283 288 292 292
309 309 309 309 310 309 310 310 311 309 307 304 301 302 303 304 304 298 293 291 289 291 293 290 287 284 283 281 281 280 281 282 282 282 282 283 282 282
306 306 308 309 310 308 307 308 308 308 307 305 304 303 302 300 300 297 293 287 287 286 289 288 286 286 282 282 283 281 281 281 281 282 282 281 282 282
305 303 302 300 302 303 302 303 304 306 306 306 304 302 298 297 296 295 294 290 292 288 285 286 285 285 285 283 281 282 281 281 282 281 281 280 281 281
301 300 300 300 300 301 301 300 301 304 304 305 304 301 296 297 295 292 293 290 291 290 287 286 283 282 282 283 287 281 281 281 281 281 281 279 279 281
299 299 299 300 300 300 300 300 300 301 304 303 303 300 297 296 296 291 292 290 290 289 287 286 285 284 281 281 283 289 283 281 281 280 281 281 279 280
297 298 298 299 300 300 300 299 300 300 300 302 301 299 297 296 294 291 291 290 290 287 284 285 285 285 284 284 282 283 288 282 281 281 281 281 282 287
298 297 298 298 299 299 300 300 300 299 299 300 299 298 296 296 294 292 291 292 291 287 284 283 286 291 286 285 281 280 283 287 285 283 282 280 279 278
298 298 298 298 298 298 299 299 298 298 298 298 298 297 297 295 295 292 290 289 289 287 287 286 286 285 284 283 282 280 281 282 287 288 288 286 280 275
298 298 298 298 298 298 298 298 298 298 298 300 299 298 297 293 295 293 291 290 289 286 285 283 285 284 284 284 283 281 281 282 282 282 283 289 290 289
Wind_Speed
9 9 9 7 6 6 4 4 5 3 4 4 4 5 5 5 8 6 7 10 11 10 11 11 11 9 7 8 8 6 6 7 8 7 10 11 12 14
8 9 10 7 7 6 7 5 5 6 4 4 4 3 5 5 8 7 7 10 12 12 12 12 13 11 9 8 8 7 8 7 5 7 9 10 12 14
11 11 14 10 9 7 6 6 8 6 10 4 4 4 6 6 5 5 6 6 5 13 13 12 13 13 11 9 10 9 8 7 5 7 8 10 11 13
15 13 15 8 12 10 8 12 11 9 9 13 5 5 7 6 6 6 6 5 5 12 14 12 14 14 12 11 11 11 9 7 6 6 7 9 11 13
15 14 16 12 13 11 12 11 10 8 9 7 8 4 5 2 3 3 5 6 4 11 14 14 14 14 14 13 12 10 10 10 8 8 7 9 11 13
15 15 16 16 17 15 12 14 10 9 8 10 9 4 3 4 3 4 5 4 5 4 9 9 10 11 13 13 12 11 13 11 9 8 9 9 10 13
15 15 16 18 24 20 12 13 13 11 9 10 10 4 6 4 9 4 8 4 5 5 4 4 4 4 5 10 10 12 13 11 11 9 9 9 9 12
16 15 15 20 21 26 28 26 19 15 15 12 12 11 15 13 5 9 6 4 4 5 6 4 5 6 5 4 11 14 13 12 12 10 8 8 11 12
16 15 14 12 18 16 24 30 29 29 28 17 15 17 16 16 11 8 9 6 7 3 5 3 4 5 4 6 15 14 13 12 12 9 6 8 11 11
16 16 17 16 14 16 16 17 20 20 21 18 18 18 17 11 16 15 15 7 3 2 4 4 4 4 3 4 12 13 14 14 11 7 6 8 9 8
15 16 17 17 18 21 17 18 18 18 18 28 31 26 20 20 16 8 6 8 5 5 7 5 4 4 4 3 5 14 13 12 9 6 7 7 6 9
12 14 20 20 22 22 18 17 18 16 13 13 15 20 16 15 25 18 12 12 4 2 8 8 4 5 3 3 3 2 4 10 8 6 6 7 7 1
10 10 10 18 24 27 25 18 19 14 15 14 13 11 13 12 12 14 14 14 8 6 8 7 5 4 2 3 2 4 4 3 3 3 7 8 8 6
12 10 11 15 20 24 23 27 27 21 11 9 10 11 11 12 12 13 14 15 11 11 14 9 6 6 5 4 4 3 3 4 3 3 3 5 9 9
9 13 19 17 18 19 24 26 24 13 13 13 12 13 11 11 11 7 3 5 4 5 12 9 6 7 5 4 5 4 5 4 4 4 3 3 3 3
11 10 11 15 15 13 12 14 12 12 13 13 12 11 8 8 10 8 8 5 4 3 3 6 8 10 4 3 4 4 4 5 3 4 3 2 3 4
18 10 8 5 7 7 7 9 8 10 12 12 11 10 7 9 9 8 7 6 10 7 6 4 4 5 4 8 4 5 5 4 4 3 3 3 3 4
11 10 10 8 9 8 7 8 8 12 11 11 10 10 9 11 10 8 8 8 11 10 10 8 6 4 2 3 8 5 4 4 4 5 3 3 2 4
9 9 9 9 8 7 8 8 9 9 11 10 10 10 10 10 14 10 11 10 9 9 8 10 11 9 9 9 2 17 6 6 4 4 4 5 4 4
6 9 9 8 8 8 8 9 8 7 8 10 10 9 10 11 11 11 12 12 11 8 8 9 12 13 12 9 6 3 16 6 5 4 3 2 4 11
9 8 7 8 8 8 8 8 10 9 9 9 10 10 11 11 11 11 11 17 17 10 11 12 13 19 6 7 4 3 4 10 8 5 4 2 2 2
9 10 9 8 8 8 8 8 8 9 9 9 10 10 10 11 12 11 11 12 12 10 10 7 10 10 8 7 6 6 4 3 6 12 11 10 5 3
10 10 9 9 8 8 8 8 9 10 9 10 10 10 11 11 11 11 11 11 11 10 10 9 9 8 7 7 9 5 6 5 4 4 3 12 13 15
Wind_Direction
224 218 216 220 204 199 183 171 163 239 279 256 213 207 195 187 208 197 198 211 216 225 213 229 228 236 254 272 263 268 279 297 308 316 319 320 326 330
224 218 219 219 214 204 201 191 188 183 233 212 236 220 200 204 213 201 205 206 216 221 221 226 223 232 248 254 243 252 273 283 290 304 314 321 326 332
224 219 229 218 220 214 204 197 206 176 230 249 224 209 197 206 212 212 207 206 218 217 230 219 216 224 237 234 230 250 260 260 255 296 310 318 325 326
229 227 232 215 225 215 210 217 215 201 213 242 211 213 207 206 209 204 213 211 206 225 229 224 215 217 223 226 233 250 244 222 242 278 299 313 318 318
227 222 230 216 224 222 219 222 217 211 211 221 237 206 201 166 191 221 210 223 217 223 228 225 219 222 220 220 233 237 212 210 233 264 275 304 311 316
228 224 226 218 223 221 219 223 220 213 207 219 233 207 186 208 180 191 234 213 225 220 226 211 222 232 217 215 236 242 194 209 231 256 254 292 303 314
231 225 226 225 224 221 214 218 213 211 210 217 225 190 202 190 206 178 215 184 236 206 211 230 217 207 218 232 240 209 195 213 224 244 250 283 296 310
234 232 232 230 228 227 225 224 212 205 213 210 220 219 223 216 183 194 179 159 245 193 183 242 179 213 214 212 215 193 205 215 217 224 255 277 295 300
234 236 235 231 227 229 231 231 228 218 217 208 220 217 225 211 191 186 190 184 202 192 132 221 181 222 213 214 206 206 213 227 209 225 241 277 291 294
237 235 235 235 224 219 225 229 231 228 223 223 220 226 223 206 198 201 202 196 60 141 155 196 172 217 194 205 211 217 223 209 199 193 252 274 280 304
244 238 236 237 234 220 223 231 235 236 229 227 233 230 226 204 185 138 169 168 212 212 199 160 191 175 189 213 221 214 187 175 181 215 252 259 277 301
249 245 239 235 234 227 223 230 240 237 223 230 234 239 228 212 188 192 178 197 160 170 202 180 153 153 216 216 190 137 166 188 202 233 230 246 257 260
259 256 245 232 230 231 227 229 238 239 229 223 226 225 219 207 203 207 194 197 185 212 182 153 159 163 152 147 202 195 184 192 193 232 248 244 254 272
271 266 261 240 231 225 228 235 239 238 238 227 222 219 213 209 208 207 204 210 212 214 165 165 153 159 151 150 189 168 204 213 190 211 204 256 259 271
268 266 265 259 243 236 231 232 230 233 238 234 226 227 218 212 208 191 135 118 102 142 171 175 153 150 151 155 159 173 152 216 191 191 199 211 218 230
286 281 265 259 256 248 240 232 230 228 228 235 231 229 214 186 195 177 184 161 155 155 162 164 149 150 138 155 144 156 179 186 174 189 201 221 243 236
300 291 282 265 260 247 237 232 227 227 229 233 233 221 197 186 194 179 186 178 204 185 177 150 121 125 132 146 174 183 176 191 194 208 186 225 245 251
293 286 278 265 254 251 239 233 224 225 230 231 226 214 194 193 190 183 185 187 202 196 180 169 145 106 72 276 205 166 182 188 181 185 187 209 239 251
274 273 269 268 260 246 242 233 233 226 226 228 225 212 197 194 194 187 193 192 197 191 185 167 169 170 179 206 196 198 176 179 158 174 184 193 216 247
251 266 270 269 265 258 247 242 243 236 218 222 218 206 200 195 194 194 195 193 194 178 174 177 180 187 189 197 163 184 186 154 162 178 189 210 236 262
282 266 260 263 267 264 252 247 241 236 228 222 217 204 198 195 203 199 197 194 187 180 187 192 193 185 127 107 104 143 164 182 165 170 172 187 209 245
271 271 269 264 265 266 264 250 243 240 233 225 219 208 202 200 204 195 191 187 192 189 195 174 158 150 165 170 162 140 157 179 201 204 210 206 170 218
267 263 271 267 261 260 264 258 247 243 232 227 224 213 205 201 202 197 191 191 187 179 161 154 156 165 169 171 153 141 152 160 161 189 216 228 237 245